Weather in Tataouine

Tunisia     32°55′40″N   10°27′02″E
temp.,
°C
wind,
m/s
gust,
m/s
humid.,
%
clouds,
%
prec.,
mm/h
press.,
hPa
HPBL,
m
5 march, fri
fri501:00+15ese6114441 0.1 1013235
04:00+12e335530 0.1 101228
07:00+10e125918 0.1 101223
10:00+16se23310 0.0 1013488
13:00+21n33240 0.0 10121254
16:00+22n65220 0.0 10111452
19:00+16n68530 0.0 1013396
22:00+14nnw356920 0.0 1016166
6 march, sat
sat601:00+12nnw348310 0.0 101781
04:00+11nnw34940 0.0 101775
07:00+11nnw359810 0.0 101985
10:00+15nne456730 0.0 1021525
13:00+20ne544215 0.0 1020925
16:00+20ne544136 0.0 10191038
19:00+16ne576066 0.0 1019372
22:00+14ene348384 0.0 1021193
7 march, sun
sun701:00+12ne239481 0.0 102137
04:00+11ne239950 0.0 101932
07:00+12ene359769 0.0 1020252
10:00+16e567094 0.0 1020559
13:00+21e773492 0.0 10171011
16:00+22ene88360 0.0 10131111
19:00+16ene69680 0.0 1012455
22:00+14ne48801 0.0 1012307
8 march, mon
mon801:00+15ene5106731 0.0 1009293
04:00+15ene5105673 0.0 1007262
07:00+13ene346470 0.0 100550
10:00+19ese45420 0.0 1006556
13:00+22wnw13260 0.0 10051283
16:00+21n98420 0.0 1004817
19:00+15n9128110 0.0 1007689
22:00+15n8118166 0.1 1010779
9 march, tue
tue901:00+14nnw6108553 0.1 1010434
04:00+12nnw5109320 0.0 1011379
07:00+11nw489224 0.0 1013239
10:00+16n67625 0.0 1014745
13:00+19nne55412 0.0 10141350
16:00+19ne43414 0.0 10131561
19:00+16ene575715 0.0 1014389
22:00+14e237543 0.0 1017150